Location: Chandolas
(44.4033°N, 4.2533°E)
Time: 09:33:33
(UTC+00:00)

NOSS 3-3 (A) - Pass Details

Date: 15 November 2019
Orbit: 848 x 1364 km, 63.4° (Epoch: 30 November)

Event Time Altitude Azimuth Distance (km) Brightness Sun altitude
Exits shadow 04:28:32 14° 205° (SSW) 2,283 5.7 -23.2°
Maximum altitude 04:33:41 73° 123° (ESE) 985 4.1 -22.2°
Drops below altitude 10° 04:40:13 10° 40° (NE) 2,830 6.9 -21.1°
Sets 04:43:00 0° 39° (NE) 3,866 7.6 -20.6°
